• In Österreich
  • Länderverzeichnis
  • Für 7 Tage
  • Wassertemperatur
  • Satellitenkarten
  • Wetterkarte
  • News
  • Widgets
  • user-avatar
    Anmelden

    Stündliche Wetter Pogorelka

    Heute, 26 September, Mittwoch

    Zeit Temperatur Niederschläge Wind Luftdruck Luftfeuchtigkeit
    00:00 +3°C° 0 mm 4 m/S 746 mmHg 83%
    01:00 +3°C° 0 mm 4 m/S 747 mmHg 84%
    02:00 +2°C° 0 mm 3 m/S 747 mmHg 86%
    03:00 +2°C° 0 mm 3 m/S 748 mmHg 87%
    04:00 0°C° 0 mm 4 m/S 748 mmHg 87%
    05:00 0°C° 0 mm 4 m/S 748 mmHg 88%
    06:00 +1°C° 0 mm 4 m/S 749 mmHg 84%
    07:00 +3°C° 0 mm 4 m/S 749 mmHg 80%
    08:00 +4°C° 0 mm 4 m/S 750 mmHg 74%
    09:00 +5°C° 0 mm 4 m/S 749 mmHg 71%
    10:00 +7°C° 0 mm 5 m/S 749 mmHg 67%
    11:00 +8°C° 0 mm 5 m/S 749 mmHg 63%
    12:00 +9°C° 0 mm 5 m/S 749 mmHg 62%
    13:00 +9°C° 0 mm 6 m/S 748 mmHg 61%
    14:00 +10°C° 0 mm 6 m/S 748 mmHg 60%
    15:00 +9°C° 0 mm 6 m/S 747 mmHg 62%
    16:00 +8°C° 0 mm 5 m/S 746 mmHg 64%
    17:00 +8°C° 0 mm 5 m/S 746 mmHg 66%
    18:00 +7°C° 0.3 mm 6 m/S 745 mmHg 69%
    19:00 +6°C° 0.3 mm 7 m/S 743 mmHg 71%
    20:00 +5°C° 0.3 mm 7 m/S 742 mmHg 74%
    21:00 +5°C° 1.1 mm 8 m/S 741 mmHg 78%
    22:00 +5°C° 1.1 mm 9 m/S 739 mmHg 81%
    23:00 +3°C° 1.1 mm 9 m/S 738 mmHg 85%

    Morgen, 27 September, Donnerstag

    Zeit Temperatur Niederschläge Wind Luftdruck Luftfeuchtigkeit
    00:00 +3°C° 1.4 mm 9 m/S 737 mmHg 86%
    01:00 +3°C° 1.4 mm 9 m/S 735 mmHg 86%
    02:00 +3°C° 1.4 mm 9 m/S 734 mmHg 87%
    03:00 +5°C° 1 mm 8 m/S 733 mmHg 87%
    04:00 +5°C° 1 mm 7 m/S 733 mmHg 88%
    05:00 +6°C° 1 mm 7 m/S 732 mmHg 88%
    06:00 +6°C° 0.3 mm 7 m/S 732 mmHg 85%
    07:00 +6°C° 0.3 mm 7 m/S 732 mmHg 81%
    08:00 +6°C° 0.3 mm 7 m/S 733 mmHg 77%
    09:00 +8°C° 0.2 mm 7 m/S 733 mmHg 74%
    10:00 +7°C° 0.2 mm 8 m/S 733 mmHg 71%
    11:00 +7°C° 0.2 mm 8 m/S 733 mmHg 67%
    12:00 +7°C° 0.2 mm 8 m/S 734 mmHg 66%
    13:00 +7°C° 0.2 mm 8 m/S 734 mmHg 64%
    14:00 +7°C° 0.2 mm 8 m/S 735 mmHg 62%
    15:00 +8°C° 0.1 mm 7 m/S 735 mmHg 64%
    16:00 +7°C° 0.1 mm 6 m/S 736 mmHg 66%
    17:00 +5°C° 0.1 mm 6 m/S 736 mmHg 68%
    18:00 +6°C° 0 mm 5 m/S 736 mmHg 70%
    19:00 +6°C° 0 mm 5 m/S 737 mmHg 71%
    20:00 +5°C° 0 mm 5 m/S 737 mmHg 72%
    21:00 +5°C° 0 mm 5 m/S 738 mmHg 73%
    22:00 +5°C° 0 mm 5 m/S 738 mmHg 73%
    23:00 +5°C° 0 mm 5 m/S 738 mmHg 74%

    übermorgen, 28 September, Freitag

    Zeit Temperatur Niederschläge Wind Luftdruck Luftfeuchtigkeit
    00:00 +3°C° 0 mm 5 m/S 738 mmHg 76%
    01:00 +3°C° 0 mm 5 m/S 738 mmHg 78%
    02:00 +3°C° 0 mm 5 m/S 738 mmHg 80%
    03:00 +3°C° 0.6 mm 5 m/S 738 mmHg 83%
    04:00 +4°C° 0.6 mm 4 m/S 737 mmHg 85%
    05:00 +4°C° 0.6 mm 4 m/S 736 mmHg 88%
    06:00 +4°C° 1.7 mm 4 m/S 735 mmHg 90%
    07:00 +5°C° 1.7 mm 4 m/S 734 mmHg 91%
    08:00 +5°C° 1.7 mm 5 m/S 733 mmHg 93%
    09:00 +7°C° 1.1 mm 5 m/S 732 mmHg 92%
    10:00 +8°C° 1.1 mm 5 m/S 732 mmHg 91%
    11:00 +10°C° 1.1 mm 6 m/S 731 mmHg 91%
    12:00 +10°C° 1.2 mm 6 m/S 731 mmHg 89%
    13:00 +10°C° 1.2 mm 6 m/S 730 mmHg 87%
    14:00 +10°C° 1.2 mm 6 m/S 730 mmHg 86%
    15:00 +9°C° 0.5 mm 6 m/S 731 mmHg 85%
    16:00 +8°C° 0.5 mm 7 m/S 732 mmHg 85%
    17:00 +6°C° 0.5 mm 7 m/S 733 mmHg 84%
    18:00 +5°C° 0.2 mm 7 m/S 734 mmHg 84%
    19:00 +4°C° 0.2 mm 7 m/S 736 mmHg 83%
    20:00 +4°C° 0.2 mm 7 m/S 737 mmHg 83%
    21:00 +3°C° 0 mm 6 m/S 738 mmHg 83%
    22:00 +2°C° 0 mm 6 m/S 739 mmHg 84%
    23:00 +1°C° 0 mm 5 m/S 740 mmHg 85%

    29 September, Samstag

    Zeit Temperatur Niederschläge Wind Luftdruck Luftfeuchtigkeit
    00:00 0°C° 0 mm 5 m/S 741 mmHg 84%
    01:00 0°C° 0 mm 5 m/S 742 mmHg 84%
    02:00 -1°C° 0 mm 5 m/S 743 mmHg 83%
    03:00 -1°C° 0 mm 4 m/S 743 mmHg 83%
    04:00 -1°C° 0 mm 4 m/S 744 mmHg 82%
    05:00 -2°C° 0 mm 4 m/S 744 mmHg 82%
    06:00 -1°C° 0 mm 5 m/S 745 mmHg 79%
    07:00 0°C° 0 mm 5 m/S 745 mmHg 75%
    08:00 0°C° 0 mm 5 m/S 746 mmHg 72%
    09:00 +1°C° 0 mm 5 m/S 746 mmHg 68%
    10:00 +3°C° 0 mm 5 m/S 747 mmHg 64%
    11:00 +5°C° 0 mm 5 m/S 748 mmHg 61%
    12:00 +5°C° 0 mm 5 m/S 748 mmHg 59%
    13:00 +5°C° 0 mm 5 m/S 748 mmHg 57%
    14:00 +5°C° 0 mm 5 m/S 748 mmHg 56%
    15:00 +5°C° 0 mm 4 m/S 749 mmHg 60%
    16:00 +4°C° 0 mm 4 m/S 749 mmHg 64%
    17:00 +3°C° 0 mm 3 m/S 750 mmHg 68%
    18:00 +2°C° 0 mm 3 m/S 750 mmHg 71%
    19:00 +1°C° 0 mm 3 m/S 750 mmHg 73%
    20:00 +1°C° 0 mm 3 m/S 751 mmHg 75%
    21:00 0°C° 0 mm 3 m/S 751 mmHg 76%
    22:00 +1°C° 0 mm 2 m/S 752 mmHg 78%
    23:00 -1°C° 0 mm 2 m/S 752 mmHg 79%

    30 September, Sonntag

    Zeit Temperatur Niederschläge Wind Luftdruck Luftfeuchtigkeit
    00:00 -1°C° 0 mm 2 m/S 752 mmHg 79%
    01:00 -1°C° 0 mm 2 m/S 752 mmHg 79%
    02:00 -2°C° 0 mm 2 m/S 752 mmHg 79%
    03:00 -2°C° 0 mm 2 m/S 752 mmHg 79%
    04:00 -1°C° 0 mm 2 m/S 752 mmHg 79%
    05:00 -1°C° 0 mm 2 m/S 752 mmHg 79%
    06:00 0°C° 0 mm 3 m/S 752 mmHg 76%
    07:00 +1°C° 0 mm 3 m/S 752 mmHg 72%
    08:00 +3°C° 0 mm 4 m/S 752 mmHg 69%
    09:00 +4°C° 0 mm 4 m/S 752 mmHg 66%
    10:00 +6°C° 0 mm 5 m/S 751 mmHg 63%
    11:00 +7°C° 0 mm 5 m/S 751 mmHg 61%
    12:00 +8°C° 0 mm 5 m/S 751 mmHg 61%
    13:00 +8°C° 0 mm 5 m/S 750 mmHg 61%
    14:00 +8°C° 0 mm 6 m/S 750 mmHg 61%
    15:00 +7°C° 0.1 mm 5 m/S 750 mmHg 66%
    16:00 +6°C° 0.1 mm 5 m/S 749 mmHg 70%
    17:00 +6°C° 0.1 mm 4 m/S 749 mmHg 75%
    18:00 +6°C° 0.2 mm 4 m/S 749 mmHg 78%
    19:00 +6°C° 0.2 mm 5 m/S 748 mmHg 80%
    20:00 +6°C° 0.2 mm 5 m/S 748 mmHg 83%
    21:00 +6°C° 0 mm 5 m/S 748 mmHg 84%
    22:00 +5°C° 0 mm 5 m/S 748 mmHg 84%
    23:00 +5°C° 0 mm 5 m/S 748 mmHg 84%

    1 Oktober, Montag

    Zeit Temperatur Niederschläge Wind Luftdruck Luftfeuchtigkeit
    00:00 +5°C° 0 mm 5 m/S 748 mmHg 85%
    01:00 +5°C° 0 mm 5 m/S 748 mmHg 87%
    02:00 +5°C° 0 mm 4 m/S 748 mmHg 88%
    03:00 +5°C° 0 mm 4 m/S 748 mmHg 89%
    04:00 +4°C° 0 mm 4 m/S 748 mmHg 90%
    05:00 +4°C° 0 mm 4 m/S 748 mmHg 91%
    06:00 +5°C° 0 mm 4 m/S 749 mmHg 89%
    07:00 +5°C° 0 mm 4 m/S 749 mmHg 86%
    08:00 +6°C° 0 mm 4 m/S 749 mmHg 83%
    09:00 +7°C° 0 mm 4 m/S 749 mmHg 81%
    10:00 +7°C° 0 mm 4 m/S 749 mmHg 79%
    11:00 +8°C° 0 mm 4 m/S 749 mmHg 76%
    12:00 +10°C° 0 mm 4 m/S 749 mmHg 72%
    13:00 +10°C° 0 mm 5 m/S 749 mmHg 68%
    14:00 +12°C° 0 mm 5 m/S 749 mmHg 64%
    15:00 +11°C° 0 mm 4 m/S 749 mmHg 68%
    16:00 +10°C° 0 mm 4 m/S 749 mmHg 72%
    17:00 +9°C° 0 mm 3 m/S 749 mmHg 76%
    18:00 +8°C° 0 mm 3 m/S 749 mmHg 78%
    19:00 +7°C° 0 mm 3 m/S 749 mmHg 79%
    20:00 +7°C° 0 mm 3 m/S 750 mmHg 81%
    21:00 +5°C° 0 mm 3 m/S 750 mmHg 82%
    22:00 +5°C° 0 mm 3 m/S 750 mmHg 83%
    23:00 +5°C° 0 mm 2 m/S 750 mmHg 85%
    Mehr zeigen